sat.trackr.live / text

‹ back to catalog

HULIANWANG DIGUI-64

NORAD 65170 · 2025-174G

PAYLOAD ACTIVE UNKNOWN

§ Identity

Operator
Country
PRC
Launch date
2025-08-13
Launch site
WSC
Launch vehicle
Mass (kg)
RCS (m²)

External: N2YO · Heavens-Above · Gunter

§ Orbital elements

Epoch: 2026-09-21T22:31:22.205280Z

Period
108.73 min
Inclination
86.4947°
Eccentricity
0.0002254
Mean motion
13.24400366 rev/d
Perigee alt
1,166.3 km
Apogee alt
1,169.7 km
Semi-major
7,546.1 km
B*
2.1990e-6
RAAN
219.2033°
Arg perigee
73.2413°
Mean anomaly
286.8968°
Rev number
5,359

§ Raw data

HULIANWANG DIGUI-641 65170U 25174G   26264.93845145  .00000016  00000+0  21990-5 0  99992 65170  86.4947 219.2033 0002254  73.2413 286.8968 13.24400366 53590

JSON: /api/v1/satellites/65170 · /tle

For live sub-satellite position, see the globe view (requires WebGL).

§ Visibility from observer

Set your observer location to see the next 7 days of passes ≥ 10°. The values pass through the URL so the page stays shareable.

No JS? Fill the form by hand. The geolocation button needs JavaScript.